Simultaneous Nadir Overpasses (SNOs) Predictions

Prediction of SNOs near US between AQUA and NPP Satellite Orbit:

Table of predicted SNOs near US for the next 10.0 days since TLE Epoch: 7/22/2016
Index Date (AQUA) Time (AQUA) AQUA Lat,Lon Date (NPP) Time (NPP) NPP Lat,Lon Distance(km) Time Diff (sec)
1 07/24/2016 08:34:25 21.15,-101.60 07/24/2016 08:26:24 21.15,-101.76 15.68 481
2 07/24/2016 10:10:48 30.19,-124.10 07/24/2016 10:05:17 30.34,-124.74 63.83 331
3 07/27/2016 07:18:26 49.94, -75.98 07/27/2016 07:20:55 50.39, -78.14 162.51 149
4 07/27/2016 08:57:20 49.88,-100.72 07/27/2016 09:02:24 50.44,-103.49 207.28 304
5 07/29/2016 18:16:36 49.94, -80.15 07/29/2016 18:11:11 49.66, -81.69 115.05 325
6 07/29/2016 19:55:30 50.00,-104.89 07/29/2016 19:52:40 49.61,-107.04 160.22 170
7 07/29/2016 21:30:40
